Estación de Las Viñas

Ultimos registro cada 15 minutos 60
Estación Fecha / Hora Temperatura Humedad Lluvia Velocidad Dirección Radiación Presion
60 Las Viñas 06-05-2026 14:45 13,9 88 0 0 169 181 1015,9
59 Las Viñas 06-05-2026 14:30 13,4 86 0 0,9 175 513 1015,5
58 Las Viñas 06-05-2026 14:15 13 87 0 0,9 168 174 1015,2
57 Las Viñas 06-05-2026 14:00 13,7 86 0 0 175 98 1014,9
56 Las Viñas 06-05-2026 13:45 13,8 80 0 0,4 155 318 1014,5
55 Las Viñas 06-05-2026 13:30 13,2 85 0 0 168 512 1013,9
54 Las Viñas 06-05-2026 13:15 13,8 81 0 0 214 90 1013,6
53 Las Viñas 06-05-2026 13:00 14,2 76 0 0,4 221 213 1013,2
52 Las Viñas 06-05-2026 12:45 14,1 73 0 0 280 798 1012,8
51 Las Viñas 06-05-2026 12:30 13,6 75 0 0 185 323 1012,2
50 Las Viñas 06-05-2026 12:15 13,4 76 0 0 339 142 1011,9
49 Las Viñas 06-05-2026 12:00 13,6 76 0,4 0 198 90 1011,6
48 Las Viñas 06-05-2026 11:45 13,6 75 0 0 356 77 1011,2
47 Las Viñas 06-05-2026 11:30 13,4 75 0,2 0,4 214 123 1010,9
46 Las Viñas 06-05-2026 11:15 13,3 76 0,2 0,9 4 100 1010,5
45 Las Viñas 06-05-2026 11:00 13,2 77 1,8 1,8 310 105 1010,1
44 Las Viñas 06-05-2026 10:45 13,1 78 1 0,9 357 23 1010
43 Las Viñas 06-05-2026 10:30 13,1 79 1 1,3 14 72 1009,4
42 Las Viñas 06-05-2026 10:15 13,2 79 1,8 1,8 33 32 1009,3
41 Las Viñas 06-05-2026 10:00 13,3 79 1 1,3 355 21 1009
40 Las Viñas 06-05-2026 09:45 13,2 78 0,2 2,7 349 39 1008,9
39 Las Viñas 06-05-2026 09:30 13,1 78 1,2 1,8 355 39 1008,7
38 Las Viñas 06-05-2026 09:15 13 79 1,2 1,3 25 12 1008,6
37 Las Viñas 06-05-2026 09:00 13 80 0,8 2,2 339 21 1008,5
36 Las Viñas 06-05-2026 08:45 12,9 79 0 2,7 14 32 1008,3
35 Las Viñas 06-05-2026 08:30 12,8 79 0,8 0,9 82 21 1008,1
34 Las Viñas 06-05-2026 08:15 12,8 80 0,8 3,6 350 0 1007,6
33 Las Viñas 06-05-2026 08:00 12,9 80 0,8 2,7 15 0 1008,2
32 Las Viñas 06-05-2026 07:45 12,9 80 1,6 4,9 15 0 1008,4
31 Las Viñas 06-05-2026 07:30 13 80 0,4 3,6 342 0 1008,3
30 Las Viñas 06-05-2026 07:15 13 80 0,2 1,3 357 0 1008,3
29 Las Viñas 06-05-2026 07:00 12,9 79 0,2 3,1 18 0 1008,2
28 Las Viñas 06-05-2026 06:45 12,9 79 0,2 4 330 0 1008,3
27 Las Viñas 06-05-2026 06:30 12,9 78 0 0,9 340 0 1008,2
26 Las Viñas 06-05-2026 06:15 12,8 78 0 3,1 348 0 1008,2
25 Las Viñas 06-05-2026 06:00 12,8 79 0,6 2,2 7 0 1008,2
24 Las Viñas 06-05-2026 05:45 12,8 79 1,2 4 358 0 1008,3
23 Las Viñas 06-05-2026 05:30 12,9 79 1,6 1,3 322 0 1008,4
22 Las Viñas 06-05-2026 05:15 12,9 79 0,4 2,2 345 0 1008,4
21 Las Viñas 06-05-2026 05:00 12,9 79 0 3,1 333 0 1008,5
20 Las Viñas 06-05-2026 04:45 12,9 78 0,2 1,3 2 0 1008,6
19 Las Viñas 06-05-2026 04:30 12,9 77 0 3,1 10 0 1008,7
18 Las Viñas 06-05-2026 04:15 12,8 77 0 1,3 18 0 1008,7
17 Las Viñas 06-05-2026 04:00 12,8 77 0,2 3,6 340 0 1008,8
16 Las Viñas 06-05-2026 03:45 12,8 76 0 2,7 12 0 1008,8
15 Las Viñas 06-05-2026 03:30 12,8 76 0,4 1,3 14 0 1009
14 Las Viñas 06-05-2026 03:15 12,8 76 0,6 1,3 31 0 1009,2
13 Las Viñas 06-05-2026 03:00 12,8 75 0,6 0 22 0 1009,4
12 Las Viñas 06-05-2026 02:45 12,8 75 0,4 0 345 0 1009,4
11 Las Viñas 06-05-2026 02:30 12,7 74 0,2 0 351 0 1009,4
10 Las Viñas 06-05-2026 02:15 12,8 74 0 0 72 0 1009,4
9 Las Viñas 06-05-2026 02:00 12,7 73 0,6 1,3 33 0 1009,4
8 Las Viñas 06-05-2026 01:45 12,8 73 0,8 0 18 0 1009,2
7 Las Viñas 06-05-2026 01:30 12,8 73 0,8 0,4 359 0 1009,4
6 Las Viñas 06-05-2026 01:15 12,8 73 0,4 0 34 0 1009,6
5 Las Viñas 06-05-2026 01:00 12,8 73 0,8 0 185 0 1010,2
4 Las Viñas 06-05-2026 00:45 12,8 73 1,4 0 185 0 1010,9
3 Las Viñas 06-05-2026 00:30 12,8 73 1,2 0 185 0 1010,7
2 Las Viñas 06-05-2026 00:15 12,8 74 1,4 0 355 0 1010,7
1 Las Viñas 06-05-2026 00:00 12,8 74 0,6 0 355 0 1011,2